Home > Weather > Tulkarm > Past weeks

Flag for Palestinian Territories Weather for the Past 2 Weeks in Tulkarm, West Bank, Palestinian Territories

Now
64 °F

Sunny.


Feels Like: 64 °F
Forecast: 56 / 77 °F
Wind: 6 mph from North

Location: Dov Airport

Current Time: Feb 14, 2016 at 5:51:11 PM

Latest Report: Feb 14, 2016 at 4:50 PM


Visibility: 10 mi

Pressure: 30.09 "Hg

Humidity: 83%

Dew point: 59 °F

Location of TulkarmLocation

Historic Weather in Tulkarm — Graph

°F

Tulkarm Temperature Yesterday

Maximum temperature yesterday: 66 °F (at 2:50 PM)
Minimum temperature yesterday: 52 °F (at 6:00 AM)
Average temperature yesterday: 60 °F

High & Low Weather Summary for the Past Weeks

 TemperatureHumidityPressure
High75 °F (Feb 4, 12:50 PM)94% (Feb 8, 6:50 AM)30.33 "Hg (Feb 8, 6:50 AM)
Low45 °F (Jan 31, 5:50 AM)22% (Feb 4, 12:50 PM)29.89 "Hg (Feb 7, 5:50 AM)
Average59 °F67%30.13 "Hg
* Reported Jan 30 4:50 PM — Feb 14 4:50 PM, Tulkarm, Weather by CustomWeather, © 2016

Note: Actual official high and low records may vary slightly from our data, if they occured in-between our weather recording intervals... More about our weather records

Advertising

Tulkarm Weather History for the Previous 24 Hours

 ConditionsComfort  
Time TempWeatherWind HumidityBarometerVisibility
4:50 PM
Sun, Feb 14
64 °FSunny.6 mph83%30.09 "Hg10 mi
3:50 PM66 °FSunny.6 mph78%30.09 "Hg10 mi
2:50 PM66 °FSunny.5 mph73%30.09 "Hg10 mi
1:50 PM66 °FSunny.5 mph73%30.09 "Hg10 mi
12:50 PM64 °FSunny.6 mph73%30.12 "Hg10 mi
11:50 AM64 °FPassing clouds.6 mph73%30.12 "HgN/A
10:50 AM63 °FSunny.7 mph77%30.12 "Hg10 mi
9:50 AM63 °FSunny.3 mph68%30.12 "Hg10 mi
8:50 AM61 °FSunny.2 mph68%30.12 "Hg10 mi
7:50 AM55 °FSunny.5 mph82%30.12 "Hg10 mi
6:50 AM52 °FSunny.5 mph88%30.12 "Hg10 mi
5:50 AM54 °FClear.6 mph82%30.09 "Hg6 mi
4:50 AM54 °FClear.5 mph88%30.09 "Hg6 mi
4:00 AM52 °FClear.5 mph94%30.09 "Hg6 mi
10:50 PM
Sat, Feb 13
57 °FClear.5 mph94%30.09 "Hg4 mi
9:50 PM59 °FClear.1 mph88%30.09 "Hg4 mi
8:50 PM59 °FClear.2 mph88%30.09 "Hg5 mi
7:50 PM59 °FClear.3 mph88%30.09 "Hg10 mi
6:50 PM61 °FClear.3 mph83%30.09 "Hg10 mi
5:50 PM63 °FClear.3 mph83%30.07 "Hg10 mi
Weather by CustomWeather, © 2016

See weather overviewHow to use our weather pages